Location: ???????????
(54.5822°N, 39.1075°E)
Time: 06:57:22
(UTC+00:00)

Cosmos 2369 - Pass Details

Date: 19 May 2025
Orbit: 840 x 852 km, 71.0° (Epoch: 23 June)

Event Time Altitude Azimuth Distance (km) Brightness Sun altitude
Rises 19:47:49 0° 325° (NW) 3,417 8.6 -12.9°
Reaches altitude 10° 19:50:18 10° 322° (NW) 2,476 7.4 -13.0°
Maximum altitude 19:55:51 57° 245° (WSW) 989 4.0 -13.3°
Enters shadow 19:59:51 19° 172° (S) 1,914 4.9 -13.5°
